Estación de El Tambo INIA
Ultimos registro cada 15 minutos 35
| N° | Estación | Fecha / Hora | Temperatura | Humedad | Lluvia | Velocidad | Dirección | Radiación | Presion |
| 35 | El Tambo INIA | 08-05-2026 08:30 | 6,1 | 89,5 | 0 | 1,3 | 100 | 112 | 992 |
| 34 | El Tambo INIA | 08-05-2026 08:15 | 5,3 | 91,9 | 0 | 1,2 | 98 | 79 | 992 |
| 33 | El Tambo INIA | 08-05-2026 08:00 | 4,2 | 95,1 | 0 | 1,1 | 114 | 39 | 992 |
| 32 | El Tambo INIA | 08-05-2026 07:45 | 4,2 | 94,9 | 0 | 0,7 | 121 | 7 | 992 |
| 31 | El Tambo INIA | 08-05-2026 07:30 | 4,7 | 94,2 | 0 | 0,7 | 52 | 2 | 992 |
| 30 | El Tambo INIA | 08-05-2026 07:15 | 5,1 | 93 | 0 | 0,5 | 88 | 0 | 992 |
| 29 | El Tambo INIA | 08-05-2026 07:00 | 5,6 | 90,6 | 0 | 1,8 | 77 | 0 | 993 |
| 28 | El Tambo INIA | 08-05-2026 06:45 | 5,8 | 89,8 | 0 | 1,7 | 59 | 0 | 993 |
| 27 | El Tambo INIA | 08-05-2026 06:30 | 6 | 88,1 | 0 | 2,7 | 71 | 0 | 993 |
| 26 | El Tambo INIA | 08-05-2026 06:15 | 5,8 | 89 | 0 | 2,3 | 74 | 0 | 993 |
| 25 | El Tambo INIA | 08-05-2026 06:00 | 5,7 | 90,4 | 0 | 1,7 | 59 | 0 | 993 |
| 24 | El Tambo INIA | 08-05-2026 05:45 | 5,9 | 90 | 0 | 1,9 | 60 | 0 | 993 |
| 23 | El Tambo INIA | 08-05-2026 05:30 | 6 | 89,1 | 0 | 2 | 69 | 0 | 992 |
| 22 | El Tambo INIA | 08-05-2026 05:15 | 6,2 | 88,9 | 0 | 1,8 | 65 | 0 | 992 |
| 21 | El Tambo INIA | 08-05-2026 05:00 | 6,3 | 88,5 | 0 | 1,4 | 75 | 0 | 992 |
| 20 | El Tambo INIA | 08-05-2026 04:45 | 6,5 | 87,5 | 0 | 2 | 70 | 0 | 992 |
| 19 | El Tambo INIA | 08-05-2026 04:30 | 6,6 | 87,1 | 0 | 2,8 | 74 | 0 | 992 |
| 18 | El Tambo INIA | 08-05-2026 04:15 | 6,8 | 86,7 | 0 | 2,2 | 66 | 0 | 992 |
| 17 | El Tambo INIA | 08-05-2026 04:00 | 7 | 86,2 | 0 | 2,2 | 58 | 0 | 992 |
| 16 | El Tambo INIA | 08-05-2026 03:45 | 6,9 | 86,9 | 0 | 1,9 | 64 | 0 | 993 |
| 15 | El Tambo INIA | 08-05-2026 03:30 | 6,9 | 88,7 | 0 | 1,4 | 45 | 0 | 993 |
| 14 | El Tambo INIA | 08-05-2026 03:15 | 7,3 | 86,7 | 0 | 1,7 | 56 | 0 | 993 |
| 13 | El Tambo INIA | 08-05-2026 03:00 | 7,5 | 85,9 | 0 | 2,3 | 72 | 0 | 993 |
| 12 | El Tambo INIA | 08-05-2026 02:45 | 7,6 | 85,9 | 0 | 2,1 | 69 | 0 | 993 |
| 11 | El Tambo INIA | 08-05-2026 02:30 | 7,4 | 85,1 | 0 | 2,1 | 68 | 0 | 993 |
| 10 | El Tambo INIA | 08-05-2026 02:15 | 7,1 | 88,8 | 0 | 1,2 | 104 | 0 | 993 |
| 9 | El Tambo INIA | 08-05-2026 02:00 | 7,6 | 86,4 | 0 | 1,7 | 60 | 0 | 993 |
| 8 | El Tambo INIA | 08-05-2026 01:45 | 8,1 | 84,3 | 0 | 1,6 | 83 | 0 | 993 |
| 7 | El Tambo INIA | 08-05-2026 01:30 | 8,2 | 83 | 0 | 2,3 | 89 | 0 | 994 |
| 6 | El Tambo INIA | 08-05-2026 01:15 | 8,3 | 82,7 | 0 | 2,8 | 69 | 0 | 994 |
| 5 | El Tambo INIA | 08-05-2026 01:00 | 8,3 | 83,1 | 0 | 2,4 | 65 | 0 | 994 |
| 4 | El Tambo INIA | 08-05-2026 00:45 | 8,4 | 83,6 | 0 | 1 | 70 | 0 | 994 |
| 3 | El Tambo INIA | 08-05-2026 00:30 | 8,9 | 82 | 0 | 1,2 | 47 | 0 | 994 |
| 2 | El Tambo INIA | 08-05-2026 00:15 | 9,3 | 80,4 | 0 | 1,4 | 86 | 0 | 994 |
| 1 | El Tambo INIA | 08-05-2026 00:00 | 9,6 | 79 | 0 | 2 | 91 | 0 | 994 |